Location: Basses Si�yes
(44.0835°N, 6.2037°E)
Time: 03:23:45
(UTC+00:00)

Meteor 1-20 Rocket - Pass Details

Date: 27 February 2020
Orbit: 820 x 891 km, 81.2° (Epoch: 29 March)

Event Time Altitude Azimuth Distance (km) Brightness Sun altitude
Rises 18:12:00 0° 182° (S) 3,342 7.4 -10.1°
Reaches altitude 10° 18:14:22 10° 180° (S) 2,418 6.6 -10.5°
Maximum altitude 18:19:49 72° 97° (E) 877 4.1 -11.5°
Drops below altitude 10° 18:25:22 10° 14° (NNE) 2,471 6.5 -12.5°
Sets 18:27:49 0° 13° (NNE) 3,420 7.2 -12.9°
